Погода в Хартфорде

Великобритания     51°47′46″N   0°04′57″E
темп.,
°C
ветер,
м/с
пор.,
м/с
влажн.,
%
обл.,
%
осадки,
мм/ч
давл.,
гПа
погр.,
м
8 марта, пн
пн800:000з128311 0.0 102622
03:00+2з128288 0.0 102423
06:00+2сз228788 0.0 102457
09:00+4зюз237897 0.0 1025227
12:00+7з347098 0.0 1024626
15:00+8зсз3472100 0.0 1023669
18:00+5сз3588100 0.3 1022152
21:00+4зюз239062 0.1 102339
9 марта, вт
вт900:00+3з488865 0.1 1022183
03:00+2з389177 0.0 1021160
06:00+1з389077 0.0 1021172
09:00+5з468217 0.0 1020322
12:00+9з34708 0.0 1020714
15:00+10зюз456728 0.0 10191062
18:00+7зюз347945 0.1 101873
21:00+5юз4981100 0.0 1018237
10 марта, ср
ср1000:00+4юз51282100 0.0 1017517
03:00+6юз61383100 0.0 1016794
06:00+6ююз71479100 0.1 1014753
09:00+6ююз91584100 0.9 1013842
12:00+6ююз91689100 2.7 1011804
15:00+7ююз101888100 1.8 1008844
18:00+8ююз101890100 2.3 1005833
21:00+10ююз101990100 0.1 1002881
11 марта, чт
чт1100:00+11юз101991100 0.4 9991030
03:00+11юз101983100 0.8 9971527
06:00+8юз11227491 0.9 9971635
09:00+8зюз12217043 0.1 9981774
12:00+10зюз12196467 0.4 9992016
15:00+9зюз121860100 0.3 10002035
18:00+6зюз91667100 0.4 10021251
21:00+5зюз815700 0.0 1005944
12 марта, пт
пт1200:00+5зюз715732 0.0 1006888
03:00+4зюз8157463 0.0 1006886
06:00+5юз8157981 0.0 10051114
09:00+6зюз91678100 0.3 10041336
12:00+8зюз91565100 1.8 10051894
15:00+9з10146086 0.1 10041911
18:00+5зюз6147284 0.1 1004942
21:00+6зюз81475100 0.0 1005982